Torna al catalogo

CZ-4C R/B

AttivoSSO
NORAD 49496·ROCKET BODY·🇨🇳 China

Lanciato Nov 22, 2021 da Jiuquan Satellite Launch Center

Loading…

Prossimi Passaggi (prossime 24 ore)

TLE

AggiornatoSource: Space-Track

Epoca: Sep 14, 2026, 03:51 UTC

1 49496U 21109B   26257.16082867  .00000443  00000-0  66153-4 0  9991
2 49496  98.2006 331.3466 0114565 226.6906 132.4707 14.75873974258664

Traccia CZ-4C R/B in tempo reale con AllMySat

Download on the App Store